Regional Weather Roundup
Issued by NWS

Home | Current Version | Previous Version | Text Only | Print | Product List | Glossary Off
Versions: 1 2 3 4 5 6 7 8 9 10 11 12 13 14 15 16 17 18 19 20 21 22 23 24 25 26 27 28 29 30 31 32 33 34 35 36 37 38 39 40 41 42 43 44 45 46 47 48 49 50

000
ASUS43 KIND 271759
RWRIN

WEATHER ROUNDUP FOR INDIANA
NATIONAL WEATHER SERVICE INDIANAPOLIS IN
200 PM EDT WED MAY 27 2015

NOTE: "FAIR" INDICATES FEW OR NO CLOUDS BELOW 12,000 FEET WITH NO
SIGNIFICANT WEATHER AND/OR OBSTRUCTIONS TO VISIBILITY.

* - STATION DOES NOT REPORT WEATHER SUCH AS PRECIPITATION OR FOG.

+ - STATION NOT QUALITY CONTROLLED BY THE NATIONAL WEATHER SERVICE.
    USE DATA WITH CAUTION...ESPECIALLY DEWPOINT AND RELATIVE
    HUMIDITY OBSERVATIONS.

INZ001>003-010>013-019-020-271900-
NORTHWEST INDIANA

CITY           SKY/WX    TMP DP  RH WIND       PRES   REMARKS
GARY /AIRPORT/ PTSUNNY   75  57  53 W23G35    29.99S
RENSSELAER +   RAIN      72  66  83 W15G22    30.01F

$$

LMZ046-743>745-271900-
SOUTHERN LAKE MICHIGAN

STATION/POSITION TIME  TEMP    WIND        PRES    WAVE
                       AIR SEA DIR/SP/G            HT
                 (UTC) (F)     (DEG/KT/KT) (MB)    (FT)
BURNS HARBOR     1700   65     270/ 13/ 19 1015.9R
MICHIGAN CITY    1700   63     240/ 20/ 23   N/A
5NW MICH CITY    1700   58 52  270/  8/ 10   N/A     1

$$

INZ004-005-014>016-021>024-271900-
NORTH CENTRAL INDIANA

CITY           SKY/WX    TMP DP  RH WIND       PRES   REMARKS
ELKHART        CLOUDY    68  66  94 SW8       29.98
GOSHEN         PTSUNNY   72  63  73 SW20      29.98S
6HR MIN TEMP:  67; 6HR MAX TEMP:  74; 6HR PCP: TRACE;

SOUTH BEND     PTSUNNY   75  60  59 W18G28    29.97S
6HR MIN TEMP:  68; 6HR MAX TEMP:  76; 6HR PCP:  0.11;


$$

INZ006>009-017-018-025>027-271900-
NORTHEAST INDIANA

CITY           SKY/WX    TMP DP  RH WIND       PRES   REMARKS
ANGOLA *+      MOSUNNY   72  64  78 W13       29.99R
FORT WAYNE     TSTM      75  66  73 SW14G29   29.99S
6HR MIN TEMP:  67; 6HR MAX TEMP:  79; 6HR PCP: TRACE;


$$

INZ028-029-035-036-043>045-051>053-271900-
WEST CENTRAL INDIANA

CITY           SKY/WX    TMP DP  RH WIND       PRES   REMARKS
CRAWFORDSVL +  CLOUDY    77  53  42 SW17      30.03F
6HR MIN TEMP:  65; 6HR MAX TEMP:  78;

GREENCASTLE +  CLOUDY    79  55  44 SW8       30.05F
LAFAYETTE      CLOUDY    76  62  62 SW16G28   30.00F
6HR MIN TEMP:  66; 6HR MAX TEMP:  76; 6HR PCP: TRACE;

TERRE HAUTE    CLOUDY    77  59  53 SW13      30.05S
6HR MIN TEMP:  66; 6HR MAX TEMP:  79;


$$

INZ030>032-037>040-046>048-054>057-064-065-271900-
CENTRAL INDIANA

CITY           SKY/WX    TMP DP  RH WIND       PRES   REMARKS
ANDERSON       PTSUNNY   81  55  41 S17G29    30.06F
COLUMBUS       PTSUNNY   77  63  61 SW14G23   30.09S
GREENWOOD *+   PTSUNNY   81  59  47 SW14G22   30.07F
INDIANAPOLIS   PTSUNNY   78  63  59 SW20G25   30.04F
6HR MIN TEMP:  66; 6HR MAX TEMP:  82; 6HR PCP:  0.04;

-EAGLE CREEK   PTSUNNY   79  59  50 SW14G23   30.03F
6HR MIN TEMP:  66; 6HR MAX TEMP:  81;

KOKOMO *+      PTSUNNY   72  63  73 W21G44    30.02R THUNDER
6HR MIN TEMP:  68; 6HR MAX TEMP:  82;

MT COMFORT *+  MOSUNNY   81  50  34 SW18G25   30.07R
SHELBYVILLE    MOSUNNY   83  62  49 SW21G31   30.07S
6HR MIN TEMP:  67; 6HR MAX TEMP:  83;


$$

INZ033-034-041-042-049-050-058-059-271900-
EAST CENTRAL INDIANA

CITY           SKY/WX    TMP DP  RH WIND       PRES   REMARKS
MUNCIE         MOSUNNY   82  62  50 SW15G29   30.03F
6HR MIN TEMP:  67; 6HR MAX TEMP:  82;


$$

INZ060-061-067>069-081>083-085>088-271900-
SOUTHWEST INDIANA

CITY           SKY/WX    TMP DP  RH WIND       PRES   REMARKS
EVANSVILLE     MOSUNNY   78  67  68 S12       30.07F
6HR MIN TEMP:  65; 6HR MAX TEMP:  78; 6HR PCP:  0.01;

HUNTINGBURG *+ CLOUDY    77  66  69 SE14      30.08F
6HR MIN TEMP:  64; 6HR MAX TEMP:  77; 6HR PCP:  0.02;


$$

INZ062-063-066-070>080-084-089>092-271900-
SOUTH CENTRAL AND SOUTHEAST INDIANA

CITY           SKY/WX    TMP DP  RH WIND       PRES   REMARKS
BLOOMINGTON    CLOUDY    78  64  61 S9        30.05F
6HR MIN TEMP:  65; 6HR MAX TEMP:  80; 6HR PCP: TRACE;

MADISON *+     MOSUNNY   77  63  61 SW10      30.14S
SEYMOUR +      MOSUNNY   82  63  51 SW16G22   30.09F

$$




USA.gov is the U.S. government's official web portal to all federal, state and local government web resources and services.